Hourly Weather Bolshie Elbuzdovskie

Today, 20 June, Sunday

Time Temperature Precipitation Wind Pressure Humidity
00:00 +23°C° 0 mm 8 mps 756 mmHg 44%
01:00 +22°C° 0 mm 7 mps 756 mmHg 44%
02:00 +21°C° 0 mm 7 mps 756 mmHg 44%
03:00 +21°C° 0 mm 7 mps 756 mmHg 45%
04:00 +20°C° 0 mm 6 mps 756 mmHg 50%
05:00 +19°C° 0 mm 6 mps 756 mmHg 54%
06:00 +17°C° 0 mm 6 mps 756 mmHg 59%
07:00 +20°C° 0 mm 6 mps 756 mmHg 58%
08:00 +22°C° 0 mm 6 mps 756 mmHg 57%
09:00 +24°C° 0 mm 6 mps 756 mmHg 56%
10:00 +26°C° 0 mm 7 mps 756 mmHg 53%
11:00 +28°C° 0 mm 7 mps 756 mmHg 51%
12:00 +29°C° 0 mm 7 mps 756 mmHg 48%
13:00 +30°C° 0 mm 6 mps 755 mmHg 47%
14:00 +32°C° 0 mm 6 mps 755 mmHg 47%
15:00 +33°C° 0 mm 5 mps 755 mmHg 46%
16:00 +33°C° 0 mm 5 mps 755 mmHg 51%
17:00 +32°C° 0 mm 4 mps 754 mmHg 55%
18:00 +30°C° 0 mm 4 mps 754 mmHg 60%
19:00 +30°C° 0 mm 5 mps 754 mmHg 58%
20:00 +29°C° 0 mm 5 mps 754 mmHg 56%
21:00 +28°C° 0 mm 6 mps 754 mmHg 55%
22:00 +27°C° 0 mm 6 mps 754 mmHg 51%
23:00 +26°C° 0 mm 6 mps 754 mmHg 48%

Tomorrow, 21 June, Monday

Time Temperature Precipitation Wind Pressure Humidity
00:00 +26°C° 0 mm 6 mps 754 mmHg 44%
01:00 +24°C° 0 mm 6 mps 755 mmHg 45%
02:00 +23°C° 0 mm 6 mps 755 mmHg 45%
03:00 +22°C° 0 mm 5 mps 755 mmHg 46%
04:00 +21°C° 0 mm 5 mps 755 mmHg 52%
05:00 +21°C° 0 mm 5 mps 755 mmHg 57%
06:00 +20°C° 0 mm 5 mps 755 mmHg 63%
07:00 +22°C° 0 mm 5 mps 755 mmHg 60%
08:00 +24°C° 0 mm 6 mps 755 mmHg 58%
09:00 +26°C° 0 mm 6 mps 755 mmHg 55%
10:00 +28°C° 0 mm 7 mps 755 mmHg 52%
11:00 +29°C° 0 mm 7 mps 755 mmHg 49%
12:00 +32°C° 0 mm 7 mps 754 mmHg 47%
13:00 +33°C° 0 mm 7 mps 754 mmHg 45%
14:00 +34°C° 0 mm 6 mps 754 mmHg 43%
15:00 +35°C° 0 mm 6 mps 753 mmHg 41%
16:00 +34°C° 0 mm 6 mps 753 mmHg 44%
17:00 +33°C° 0 mm 6 mps 753 mmHg 46%
18:00 +32°C° 0 mm 6 mps 753 mmHg 49%
19:00 +30°C° 0 mm 6 mps 754 mmHg 46%
20:00 +29°C° 0 mm 6 mps 754 mmHg 44%
21:00 +27°C° 0 mm 6 mps 754 mmHg 41%
22:00 +27°C° 0 mm 6 mps 754 mmHg 40%
23:00 +26°C° 0 mm 6 mps 754 mmHg 39%

Day after tomorrow, 22 June, Tuesday

Time Temperature Precipitation Wind Pressure Humidity
00:00 +25°C° 0 mm 5 mps 754 mmHg 38%
01:00 +23°C° 0 mm 5 mps 754 mmHg 40%
02:00 +22°C° 0 mm 5 mps 755 mmHg 42%
03:00 +21°C° 0 mm 4 mps 755 mmHg 43%
04:00 +21°C° 0 mm 4 mps 755 mmHg 49%
05:00 +20°C° 0 mm 4 mps 755 mmHg 56%
06:00 +20°C° 0 mm 4 mps 755 mmHg 62%
07:00 +22°C° 0 mm 5 mps 755 mmHg 58%
08:00 +25°C° 0 mm 5 mps 755 mmHg 55%
09:00 +27°C° 0 mm 6 mps 755 mmHg 51%
10:00 +29°C° 0 mm 6 mps 755 mmHg 49%
11:00 +30°C° 0 mm 7 mps 755 mmHg 46%
12:00 +33°C° 0 mm 7 mps 755 mmHg 43%
13:00 +34°C° 0 mm 7 mps 754 mmHg 42%
14:00 +35°C° 0 mm 6 mps 754 mmHg 41%
15:00 +36°C° 0 mm 5 mps 753 mmHg 40%
16:00 +35°C° 0 mm 4 mps 753 mmHg 44%
17:00 +35°C° 0 mm 3 mps 753 mmHg 48%
18:00 +34°C° 0 mm 2 mps 753 mmHg 53%
19:00 +31°C° 0 mm 3 mps 754 mmHg 55%
20:00 +29°C° 0 mm 3 mps 754 mmHg 58%
21:00 +27°C° 0 mm 3 mps 754 mmHg 61%
22:00 +27°C° 0 mm 3 mps 754 mmHg 56%
23:00 +26°C° 0 mm 4 mps 754 mmHg 51%

23 June, Wednesday

Time Temperature Precipitation Wind Pressure Humidity
00:00 +26°C° 0 mm 4 mps 755 mmHg 47%
01:00 +25°C° 0.1 mm 4 mps 755 mmHg 48%
02:00 +23°C° 0.1 mm 4 mps 755 mmHg 49%
03:00 +22°C° 0.1 mm 4 mps 755 mmHg 50%
04:00 +22°C° 0 mm 4 mps 755 mmHg 53%
05:00 +22°C° 0 mm 3 mps 755 mmHg 56%
06:00 +23°C° 0 mm 2 mps 755 mmHg 60%
07:00 +25°C° 0 mm 3 mps 756 mmHg 56%
08:00 +27°C° 0 mm 3 mps 756 mmHg 53%
09:00 +29°C° 0 mm 3 mps 756 mmHg 49%
10:00 +30°C° 0 mm 4 mps 756 mmHg 46%
11:00 +33°C° 0 mm 5 mps 756 mmHg 44%
12:00 +34°C° 0 mm 5 mps 756 mmHg 41%
13:00 +35°C° 0 mm 5 mps 755 mmHg 39%
14:00 +36°C° 0 mm 5 mps 755 mmHg 37%
15:00 +37°C° 0 mm 5 mps 755 mmHg 35%
16:00 +36°C° 0 mm 5 mps 754 mmHg 40%
17:00 +35°C° 0 mm 5 mps 754 mmHg 45%
18:00 +34°C° 0 mm 5 mps 754 mmHg 50%
19:00 +32°C° 0 mm 5 mps 754 mmHg 51%
20:00 +30°C° 0 mm 5 mps 755 mmHg 51%
21:00 +28°C° 0 mm 5 mps 755 mmHg 52%
22:00 +28°C° 0 mm 5 mps 755 mmHg 49%
23:00 +27°C° 0 mm 5 mps 755 mmHg 47%

24 June, Thursday

Time Temperature Precipitation Wind Pressure Humidity
00:00 +27°C° 0 mm 5 mps 755 mmHg 44%
01:00 +26°C° 0 mm 4 mps 756 mmHg 43%
02:00 +25°C° 0 mm 4 mps 756 mmHg 43%
03:00 +23°C° 0 mm 4 mps 756 mmHg 42%
04:00 +22°C° 0 mm 4 mps 756 mmHg 47%
05:00 +22°C° 0 mm 4 mps 756 mmHg 53%
06:00 +21°C° 0 mm 3 mps 756 mmHg 58%
07:00 +23°C° 0 mm 4 mps 757 mmHg 54%
08:00 +26°C° 0 mm 4 mps 757 mmHg 50%
09:00 +28°C° 0 mm 4 mps 757 mmHg 46%
10:00 +29°C° 0 mm 4 mps 757 mmHg 42%
11:00 +30°C° 0 mm 4 mps 757 mmHg 38%
12:00 +33°C° 0 mm 4 mps 757 mmHg 35%
13:00 +33°C° 0 mm 4 mps 757 mmHg 34%
14:00 +34°C° 0 mm 4 mps 757 mmHg 33%
15:00 +35°C° 0 mm 4 mps 756 mmHg 32%
16:00 +34°C° 0 mm 4 mps 756 mmHg 39%
17:00 +33°C° 0 mm 3 mps 756 mmHg 46%
18:00 +31°C° 0 mm 3 mps 756 mmHg 53%
19:00 +30°C° 0.1 mm 3 mps 756 mmHg 54%
20:00 +28°C° 0.1 mm 3 mps 755 mmHg 56%
21:00 +26°C° 0.1 mm 4 mps 755 mmHg 58%
22:00 +26°C° 0 mm 4 mps 755 mmHg 55%
23:00 +26°C° 0 mm 4 mps 755 mmHg 52%

25 June, Friday

Time Temperature Precipitation Wind Pressure Humidity
00:00 +25°C° 0 mm 4 mps 755 mmHg 49%
01:00 +25°C° 0 mm 4 mps 755 mmHg 50%
02:00 +24°C° 0 mm 3 mps 755 mmHg 51%
03:00 +22°C° 0 mm 3 mps 755 mmHg 52%
04:00 +22°C° 0 mm 3 mps 755 mmHg 58%
05:00 +22°C° 0 mm 3 mps 755 mmHg 64%
06:00 +22°C° 0 mm 3 mps 756 mmHg 69%
07:00 +25°C° 0 mm 3 mps 756 mmHg 65%
08:00 +27°C° 0 mm 3 mps 756 mmHg 60%
09:00 +28°C° 0 mm 3 mps 756 mmHg 55%
10:00 +30°C° 0 mm 4 mps 756 mmHg 48%
11:00 +33°C° 0 mm 4 mps 756 mmHg 41%
12:00 +34°C° 0 mm 4 mps 756 mmHg 34%
13:00 +35°C° 0 mm 4 mps 756 mmHg 33%
14:00 +35°C° 0 mm 4 mps 756 mmHg 33%
15:00 +36°C° 0 mm 4 mps 756 mmHg 32%
16:00 +35°C° 0 mm 3 mps 755 mmHg 38%
17:00 +34°C° 0 mm 3 mps 755 mmHg 44%
18:00 +32°C° 0 mm 2 mps 755 mmHg 50%
19:00 +31°C° 0 mm 2 mps 755 mmHg 51%
20:00 +29°C° 0 mm 2 mps 755 mmHg 52%
21:00 +28°C° 0 mm 2 mps 755 mmHg 53%
22:00 +28°C° 0 mm 3 mps 755 mmHg 54%
23:00 +27°C° 0 mm 4 mps 754 mmHg 55%
Show more